Location: Morisset
(33.1080°S, 151.4871°E)
Time: 08:43:31
(UTC+00:00)

COSMOS 2455 - Pass Details

Date: 29 October 2020
Orbit: 899 x 911 km, 67.1° (Epoch: 27 November)

Event Time Altitude Azimuth Distance (km) Brightness Sun altitude
Exits shadow 15:28:20 28° 199° (SSW) 1,655 4.4 -36.2°
Drops below altitude 10° 15:31:42 10° 172° (S) 2,603 5.9 -35.8°
Sets 15:34:27 0° 163° (SSE) 3,548 6.8 -35.5°
